Simultaneous Nadir Overpasses (SNOs) Predictions

Prediction of SNOs between AQUA and NPP Satellite Orbit:

Table of predicted SNOs for the next 14.0 days since TLE Epoch: 10/30/2021
Index Date (AQUA) Time (AQUA) Lat,Lon (AQUA) SZA (AQUA ) Date (NPP) Time (NPP) Lat,Lon (NPP) SZA (NPP ) Distance(km) Time Diff (sec)
1 10/31/2021 20:59:52 -74.52, -79.79 68.15 10/31/2021 20:58:52 -74.52, -79.77 68.10 0.81 60
2 10/31/2021 21:48:53 75.76, 91.18 110.59 10/31/2021 21:49:10 75.76, 91.19 110.57 0.18 17
3 11/03/2021 13:16:19 -74.72, 36.59 67.54 11/03/2021 13:15:47 -74.71, 36.51 67.49 2.53 32
4 11/03/2021 14:05:21 75.91,-152.50 111.25 11/03/2021 14:06:06 75.89,-152.60 111.23 2.91 45
5 11/06/2021 05:32:33 -75.51, 154.57 67.55 11/06/2021 05:32:28 -75.51, 154.62 67.56 1.63 5
6 11/06/2021 06:21:37 76.57, -34.49 111.34 11/06/2021 06:22:49 76.57, -34.43 111.26 1.79 72
7 11/08/2021 20:59:52 74.69, 100.63 114.04 11/08/2021 20:58:58 74.70, 100.69 114.08 1.66 54
8 11/08/2021 21:48:55 -75.92, -88.35 67.21 11/08/2021 21:49:18 -75.92, -88.29 67.25 1.79 23
9 11/11/2021 13:16:19 74.84,-143.11 114.64 11/11/2021 13:15:54 74.83,-143.19 114.68 2.47 25



Historial Predications of SNOs between AQUA and NPP
